Regional Weather Roundup
Issued by NWS Jackson, KY

Home | Current Version | Previous Version | Text Only | Print | Product List | Glossary On
Versions: 1 2 3 4 5 6 7 8 9 10 11 12 13 14 15 16 17 18 19 20 21 22 23 24 25 26 27 28 29 30 31 32 33 34 35 36 37 38 39 40 41 42 43 44 45 46 47 48 49 50
000
ASUS43 KJKL 300819
RWRJKL

EAST KENTUCKY HOURLY WEATHER ROUNDUP
NATIONAL WEATHER SERVICE JACKSON KY
300 AM EST FRI JAN 30 2015

NOTE: "FAIR" INDICATES FEW OR NO CLOUDS BELOW 12,000 FEET WITH
NO SIGNIFICANT WEATHER AND/OR OBSTRUCTIONS TO VISIBILITY.

* THESE REPORTS ARE NOT UNDER NWS QUALITY CONTROL AND MAY NOT
  REPORT WEATHER SUCH AS PRECIPITATION AND FOG.

KYZ079-080-083-085-087-088-110-112-115-119-120-300900
...EASTERN KENTUCKY...

CITY           SKY/WX    TMP DP  RH WIND       PRES   REMARKS
JACKSON        CLOUDY    32  27  81 NW9       30.20S WCI  24
LONDON         CLOUDY    34  26  72 NW10      30.24R WCI  26
SOMERSET*      CLOUDY    34  27  75 NW9       30.29R WCI  26
MONTICELLO*    CLOUDY    35  30  82 NW10      30.31R WCI  27
MIDDLESBORO*   CLOUDY    35  28  76 N12G17    30.24R WCI  27
HARLAN APT*    CLOUDY    32  28  86 W6        30.19S WCI  26
HAZARD APT*    CLOUDY    34  30  86 NW5       30.21R WCI  30
BLACK MTN*       N/A     23  23 100 NW6         N/A  WCI  16
PIKEVILLE APT* CLOUDY    32  28  86 W9G17     30.16R WCI  24
BIG SANDY*     CLOUDY    33  30  92 NW7       30.18R WCI  26
MOREHEAD APT*  LGT RAIN  32  28  86 W7G15     30.23S WCI  26
ASHLAND*       PTCLDY    36  30  80 NW6       30.16S WCI  31
$$

KYZ035-036-041-042-044-050-067-078-099-300900
...CENTRAL KENTUCKY...

CITY           SKY/WX    TMP DP  RH WIND       PRES   REMARKS
MT STERLING*   CLOUDY    32  30  93 NW8       30.24R WCI  25
FLEMING/MASON* CLOUDY    32  26  76 NW16      30.22R WCI  22
DANVILLE*      CLOUDY    32  30  93 NW7       30.27S WCI  26
RICHMOND*      CLOUDY    34  28  80 NW8       30.25S WCI  27
LEXINGTON      CLOUDY    33  27  78 NW10      30.25R WCI  25
FRANKFORT      CLOUDY    33  28  81 W7        30.26R WCI  27
$$

KYZ091>093-OHZ055-061-077-WVZ005-015-034-035-042-300900
...SOUTHERN OHIO/WEST VIRGINIA...

CITY           SKY/WX    TMP DP  RH WIND       PRES   REMARKS
COVINGTON      CLOUDY    33  27  78 W10       30.23R WCI  25
COLUMBUS       FLURRIES  30  27  86 W10       30.12R WCI  21
DAYTON         CLOUDY    33  28  81 NW17      30.18R WCI  22
WILMINGTON     MIX PCPN  31  27  85 W12       30.17R WCI  22
HUNTINGTON     CLOUDY    33  28  81 W6        30.17R WCI  28
CHARLESTON     FLURRIES  33  29  85 W8        30.13R WCI  26
PINEVILLE*     LGT SNOW  34  33  95 MISG      30.14R
BECKLEY        LGT SNOW  29  25  85 NW15      30.03S FOG     WCI  18
BLUEFIELD      CLOUDY    31  26  82 NW14G30   30.01S WCI  21
$$

VAZ002-007-008-TNZ017-027-036-066-071-300900
...SOUTHWEST VIRGINIA/EAST TENNESSEE...

CITY           SKY/WX    TMP DP  RH WIND       PRES   REMARKS
WISE*          LGT SNOW  30  30 100 NW14G21   30.11R WCI  20
JONESVILLE*    CLOUDY    34  30  86 CALM      30.21R
ABINGDON*      CLOUDY    36  29  76 NW15G22   30.09S WCI  27
BRISTOL        CLOUDY    37  30  75 W9        30.14R WCI  30
KNOXVILLE      CLOUDY    39  28  64 NW10      30.24R WCI  32
OAK RIDGE      CLOUDY    39  26  59 NW7       30.27R WCI  34
CROSSVILLE     CLOUDY    34  26  72 NW8G18    30.24R WCI  27
NASHVILLE      CLOUDY    37  30  75 NW13G23   30.36R WCI  29
$$

...KEY TO REMARKS...
VSB - VISIBILITY IN MILES
WCI - WIND CHILL INDEX
HX  - HEAT INDEX

$$



USA.gov is the U.S. government's official web portal to all federal, state and local government web resources and services.